Location: Newark
(45.9456°N, 15.4064°E)
Time: 23:59:42
(UTC+00:00)

Envisat - Visible Passes

Search period start: 27 January 2021 00:00
Search period end: 06 February 2021 00:00
Orbit: 764 x 766 km, 98.1° (Epoch: 27 January)

Date Brightness Start Highest point End Pass type
(mag) Time Alt. Az. Time Alt. Az. Time Alt. Az.
27 Jan 6.0 03:23:59 10° ENE 03:26:34 14° E 03:29:09 10° ESE visible
27 Jan 2.9 05:01:07 10° N 05:06:13 80° WNW 05:11:17 10° SSW visible
27 Jan 4.3 16:18:15 10° S 16:23:08 48° W 16:28:04 10° NNW visible
28 Jan 3.9 04:24:24 10° NNE 04:29:21 49° E 04:34:15 10° S visible
28 Jan 6.2 17:23:27 10° WSW 17:25:55 13° W 17:28:23 10° WNW visible
29 Jan 5.3 03:48:13 10° NE 03:52:17 24° E 03:56:19 10° SE visible
29 Jan 3.2 05:26:39 10° N 05:31:32 47° WNW 05:36:23 10° SW visible
29 Jan 5.3 16:44:20 10° SSW 16:48:42 28° W 16:53:05 10° NW visible
30 Jan 6.2 03:13:48 10° ENE 03:15:00 11° E 03:16:13 10° E visible
30 Jan 3.0 04:49:41 10° NNE 04:54:48 83° ESE 04:59:53 10° SSW visible
31 Jan 4.4 04:13:06 10° NNE 04:17:53 39° E 04:22:37 10° SSE visible
31 Jan 6.0 17:11:05 10° SW 17:14:21 17° W 17:17:39 10° NW visible
01 Feb 5.6 03:37:10 10° NE 03:40:45 19° E 03:44:18 10° SE visible
01 Feb 3.0 05:15:09 10° N 05:20:10 59° WNW 05:25:09 10° SSW visible
01 Feb 4.9 16:32:34 10° SSW 16:37:12 35° W 16:41:51 10° NNW visible
02 Feb 3.4 04:38:17 10° NNE 04:43:23 67° ESE 04:48:25 10° S visible
03 Feb 4.8 04:01:52 10° NNE 04:06:23 31° E 04:10:53 10° SSE visible
03 Feb 3.6 05:40:49 10° N 05:45:26 36° WNW 05:50:01 10° SW visible
03 Feb 5.9 16:59:00 10° SW 17:02:49 21° W 17:06:40 10° NW visible
04 Feb 5.9 03:26:17 10° NE 03:29:12 15° E 03:32:05 10° ESE visible
04 Feb 2.9 05:03:41 10° N 05:08:47 74° WNW 05:13:50 10° SSW visible
05 Feb 3.8 04:26:56 10° NNE 04:31:56 53° E 04:36:53 10° S visible
05 Feb 6.3 17:26:28 10° WSW 17:28:32 12° W 17:30:37 10° WNW visible
